GW3708 Weather Reports


time (UTC)temp
C
wind
direction
speed
KPH
gust
KPH
rain 1hr
cm
rain 24hr
cm
rain mn
cm
humidity
%
barometer
mb
20260503055007 8 329 1.6 8.0 0.00 0.00 0.00 60 1009.5
20260503054524 8 348 1.6 8.0 0.00 0.00 0.00 60 1009.6
20260503054011 8 302 3.2 8.0 0.00 0.00 0.00 60 1009.8
20260503053508 8 71 1.6 4.8 0.00 0.00 0.00 61 1009.9
20260503053026 8 19 1.6 4.8 0.00 0.00 0.00 62 1010.1
20260503052503 8 335 1.6 4.8 0.00 0.00 0.00 64 1010.1
20260503052006 8 23 0.0 8.0 0.00 0.00 0.00 63 1009.9
20260503051513 8 300 1.6 9.7 0.00 0.00 0.00 61 1009.8
20260503051003 8 33 1.6 9.7 0.00 0.00 0.00 63 1009.9
20260503050503 8 340 1.6 6.4 0.00 0.00 0.00 66 1009.8
20260503050029 8 55 1.6 4.8 0.00 0.00 0.00 66 1009.7
20260503045507 8 293 1.6 3.2 0.00 0.00 0.00 67 1009.9
20260503045014 8 343 0.0 4.8 0.00 0.00 0.00 68 1010.2
20260503044520 8 26 0.0 4.8 0.00 0.00 0.00 69 1010.2
20260503044011 8 37 0.0 4.8 0.00 0.00 0.00 71 1010.2
20260503043507 8 352 0.0 3.2 0.00 0.00 0.00 72 1010.4
20260503043026 8 40 0.0 3.2 0.00 0.00 0.00 73 1010.4
20260503042508 8 10 0.0 4.8 0.00 0.00 0.00 76 1010.3
20260503042008 8 38 0.0 4.8 0.00 0.00 0.00 78 1010.4
20260503041526 7 58 1.6 4.8 0.00 0.00 0.00 81 1010.2
20260503041003 7 10 1.6 4.8 0.00 0.00 0.00 86 1010.3
20260503040503 7 339 1.6 4.8 0.00 0.00 0.00 88 1010.4
20260503040013 7 34 1.6 3.2 0.00 0.00 0.00 89 1010.3
20260503035502 8 17 0.0 4.8 0.00 0.00 0.00 90 1010.5
20260503035004 8 360 0.0 3.2 0.00 0.00 0.00 90 1010.4
20260503034504 8 82 0.0 0.0 0.00 0.00 0.00 90 1010.3
20260503034005 8 30 0.0 0.0 0.00 0.00 0.00 90 1010.5
20260503033507 8 36 0.0 0.0 0.00 0.00 0.00 90 1010.3
20260503033003 8 44 0.0 0.0 0.00 0.00 0.00 90 1010.1
20260503032505 8 44 0.0 0.0 0.00 0.00 0.00 90 1010.0
20260503032003 8 44 0.0 0.0 0.00 0.00 0.00 90 1010.4
20260503031507 8 44 0.0 0.0 0.00 0.00 0.00 90 1010.3
20260503031007 8 44 0.0 0.0 0.00 0.00 0.00 90 1010.5
20260503030504 8 44 0.0 0.0 0.00 0.00 0.00 90 1010.5
20260503030009 8 44 0.0 0.0 0.00 0.00 0.00 89 1010.6
20260503025506 8 44 0.0 0.0 0.00 0.00 0.00 89 1010.6
20260503025009 8 44 0.0 0.0 0.00 0.00 0.00 89 1010.4
20260503024516 8 44 0.0 0.0 0.00 0.00 0.00 89 1010.4
20260503024003 8 39 0.0 0.0 0.00 0.00 0.00 89 1010.4
20260503023505 8 39 0.0 0.0 0.00 0.00 0.00 89 1010.6
20260503023004 8 39 0.0 0.0 0.00 0.00 0.00 89 1010.5
20260503022506 8 39 0.0 0.0 0.00 0.00 0.00 89 1010.7
20260503022004 8 39 0.0 0.0 0.00 0.00 0.00 89 1010.6
20260503021507 8 39 0.0 0.0 0.00 0.00 0.00 89 1010.6
20260503021003 8 39 0.0 0.0 0.00 0.00 0.00 88 1010.6
20260503020504 8 39 0.0 0.0 0.00 0.00 0.00 88 1010.8
20260503020009 8 39 0.0 0.0 0.00 0.00 0.00 88 1010.8
20260503015504 8 36 0.0 0.0 0.00 0.00 0.00 88 1010.8
20260503015003 8 78 0.0 0.0 0.00 0.00 0.00 88 1010.9
20260503014522 8 78 0.0 0.0 0.00 0.00 0.00 88 1011.0
20260503014006 8 78 0.0 3.2 0.00 0.00 0.00 88 1010.8
20260503013504 8 84 0.0 4.8 0.00 0.00 0.00 88 1010.8
20260503013025 8 83 0.0 4.8 0.00 0.00 0.00 88 1010.8
20260503012512 9 144 0.0 0.0 0.00 0.00 0.00 88 1010.6
20260503012003 9 144 0.0 0.0 0.00 0.00 0.00 87 1010.6
20260503011504 9 144 0.0 0.0 0.00 0.00 0.00 88 1010.4
20260503011004 9 144 0.0 0.0 0.00 0.00 0.00 88 1010.4
20260503010503 9 144 0.0 0.0 0.00 0.00 0.00 87 1010.7
20260503010008 9 144 0.0 0.0 0.00 0.00 0.00 87 1010.6
20260503005502 9 144 0.0 0.0 0.00 0.00 0.00 87 1010.6
20260503005003 9 144 0.0 0.0 0.00 0.00 0.00 87 1010.5
20260503004511 10 144 0.0 0.0 0.00 0.00 0.00 87 1010.4
20260503004007 10 144 0.0 0.0 0.00 0.00 0.00 87 1010.4
20260503003503 10 141 0.0 0.0 0.00 0.00 0.00 87 1010.3
20260503003016 10 141 0.0 0.0 0.00 0.00 0.00 87 1010.3
20260503002510 10 153 0.0 0.0 0.00 0.00 0.00 87 1010.2
20260503002012 10 162 0.0 0.0 0.00 0.00 0.00 87 1010.2
20260503001520 10 162 0.0 0.0 0.00 0.00 0.00 86 1010.2
20260503001008 10 162 0.0 0.0 0.00 0.00 0.00 86 1010.1
20260503000504 10 162 0.0 0.0 0.00 0.00 0.00 86 1010.1
20260503000013 10 162 0.0 0.0 0.00 0.00 0.00 86 1010.0
20260502235503 10 162 0.0 0.0 0.00 0.00 0.00 86 1010.1
20260502235004 10 162 0.0 0.0 0.00 0.00 0.00 86 1010.1
20260502234508 10 162 0.0 0.0 0.00 0.00 0.00 86 1009.9
20260502234004 10 159 0.0 0.0 0.00 0.00 0.00 86 1010.0
20260502233504 10 149 0.0 0.0 0.00 0.00 0.00 86 1010.0
20260502233013 10 169 0.0 0.0 0.00 0.00 0.00 86 1010.1
20260502232504 10 150 0.0 0.0 0.00 0.00 0.00 86 1010.1
20260502232006 10 183 0.0 0.0 0.00 0.00 0.00 86 1010.1
20260502231518 10 183 0.0 3.2 0.00 0.00 0.00 85 1010.2
20260502231007 11 183 0.0 4.8 0.00 0.00 0.00 85 1010.3
20260502230509 11 184 1.6 3.2 0.00 0.00 0.00 85 1010.3
20260502230024 11 176 0.0 0.0 0.00 0.00 0.00 85 1010.2
20260502225510 11 175 0.0 0.0 0.00 0.00 0.00 85 1010.1
20260502225001 11 187 0.0 3.2 0.00 0.00 0.00 85 1010.0
20260502224508 11 192 0.0 3.2 0.00 0.00 0.00 85 1010.3
20260502224003 11 144 0.0 0.0 0.00 0.00 0.00 85 1010.3
20260502223503 11 118 0.0 0.0 0.00 0.00 0.00 84 1010.2
20260502223012 11 160 0.0 6.4 0.00 0.00 0.00 84 1010.2
20260502222508 11 205 0.0 6.4 0.00 0.00 0.00 84 1010.1
20260502222008 11 185 1.6 6.4 0.00 0.00 0.00 85 1010.0
20260502221513 11 216 0.0 8.0 0.00 0.00 0.00 85 1010.0
20260502221006 11 191 3.2 8.0 0.00 0.00 0.00 85 1009.9
20260502220508 11 160 3.2 6.4 0.00 0.00 0.00 84 1009.9
20260502220031 11 201 0.0 6.4 0.00 0.00 0.00 84 1009.8
20260502215509 11 196 1.6 4.8 0.00 0.00 0.00 84 1009.9
20260502215007 11 188 0.0 8.0 0.00 0.00 0.00 84 1009.9
20260502214523 11 188 3.2 9.7 0.00 0.00 0.00 84 1010.0
20260502214009 11 189 3.2 9.7 0.00 0.00 0.00 84 1010.1
20260502213505 11 176 3.2 12.9 0.00 0.00 0.00 84 1010.1
20260502213008 11 203 4.8 12.9 0.00 0.00 0.00 84 1010.0
20260502212504 11 182 4.8 9.7 0.00 0.00 0.00 84 1010.0
20260502212006 11 177 1.6 9.7 0.00 0.00 0.00 84 1010.1
20260502211521 11 186 4.8 9.7 0.00 0.00 0.00 84 1010.2
20260502211010 11 195 1.6 6.4 0.00 0.00 0.00 84 1010.1
20260502210506 11 165 1.6 3.2 0.00 0.00 0.00 84 1010.0
20260502210016 11 194 1.6 8.0 0.00 0.00 0.00 85 1009.9
20260502205510 11 178 1.6 8.0 0.00 0.00 0.00 85 1010.1
20260502205008 11 181 4.8 8.0 0.00 0.00 0.00 85 1010.1
20260502204522 11 179 3.2 8.0 0.00 0.00 0.00 85 1010.1
20260502204009 11 175 1.6 8.0 0.00 0.00 0.00 86 1010.1
20260502203511 11 194 1.6 9.7 0.00 0.00 0.00 86 1010.1
20260502203024 11 159 3.2 9.7 0.00 0.00 0.00 86 1010.1
20260502202509 11 190 1.6 9.7 0.00 0.00 0.00 86 1010.3
20260502202003 11 175 4.8 9.7 0.00 0.00 0.00 86 1010.3
20260502201508 11 177 3.2 9.7 0.00 0.00 0.00 86 1010.5
20260502201004 11 182 3.2 11.3 0.00 0.00 0.00 86 1010.6
20260502200506 10 162 6.4 14.5 0.00 0.00 0.00 86 1010.6
20260502200016 10 182 6.4 14.5 0.00 0.00 0.00 86 1010.6
20260502195507 10 153 8.0 14.5 0.00 0.00 0.00 86 1010.7
20260502195006 10 187 6.4 11.3 0.00 0.00 0.00 86 1010.7
20260502194520 10 160 4.8 9.7 0.00 0.00 0.00 86 1010.9
20260502194007 10 169 4.8 9.7 0.00 0.00 0.00 87 1010.8
20260502193508 10 151 1.6 14.5 0.00 0.00 0.00 86 1010.8
20260502193027 10 163 6.4 14.5 0.00 0.00 0.00 86 1011.0
20260502192509 10 188 8.0 11.3 0.00 0.00 0.00 86 1011.0
20260502192010 10 172 4.8 11.3 0.00 0.00 0.00 86 1011.0
20260502191525 10 187 4.8 8.0 0.00 0.00 0.00 86 1011.1
20260502191010 10 209 3.2 11.3 0.00 0.00 0.00 86 1011.2
20260502190506 10 199 3.2 11.3 0.00 0.00 0.00 86 1011.2
20260502190014 10 180 4.8 11.3 0.00 0.00 0.00 86 1011.2
20260502185506 10 148 4.8 11.3 0.00 0.00 0.00 86 1011.2
20260502185002 10 171 4.8 9.7 0.00 0.00 0.00 86 1011.3
20260502184505 10 179 4.8 9.7 0.00 0.00 0.00 86 1011.4
20260502184003 10 196 3.2 9.7 0.00 0.00 0.00 86 1011.3
20260502183503 10 180 4.8 11.3 0.00 0.00 0.00 86 1011.4
20260502183006 10 186 4.8 12.9 0.00 0.00 0.00 86 1011.4
20260502182503 10 162 8.0 12.9 0.00 0.00 0.00 86 1011.4
20260502182004 10 189 6.4 11.3 0.00 0.00 0.00 86 1011.3
20260502181507 10 196 6.4 11.3 0.00 0.00 0.00 86 1011.3
20260502181003 10 181 4.8 9.7 0.00 0.00 0.00 86 1011.4
20260502180504 10 175 4.8 9.7 0.00 0.00 0.00 86 1011.5
20260502170506 11 205 0.0 3.2 0.00 0.00 0.00 84 1011.8
20260502164003 11 242 0.0 0.0 0.00 0.00 0.00 84 1011.7
20260502163506 11 244 0.0 0.0 0.00 0.00 0.00 84 1011.7
20260502163018 11 248 0.0 0.0 0.00 0.00 0.00 84 1011.7
20260502162507 11 257 0.0 0.0 0.00 0.00 0.00 84 1011.8
20260502162012 11 257 0.0 1.6 0.00 0.00 0.00 84 1011.7
20260502161505 11 258 0.0 3.2 0.00 0.00 0.00 84 1011.8
20260502161007 11 239 1.6 3.2 0.00 0.00 0.00 84 1011.7
20260502160508 11 254 1.6 3.2 0.00 0.00 0.00 84 1011.9
20260502152006 11 220 1.6 3.2 0.00 0.00 0.00 83 1012.1
20260502151521 11 218 1.6 4.8 0.00 0.00 0.00 83 1012.1
20260502151011 11 208 1.6 4.8 0.00 0.00 0.00 83 1012.1
20260502150507 11 219 1.6 4.8 0.00 0.00 0.00 83 1012.2
20260502130507 11 153 1.6 3.2 0.00 0.00 0.00 80 1012.0
20260502123512 11 314 0.0 0.0 0.00 0.00 0.00 82 1012.6
20260502123014 11 13 0.0 0.0 0.00 0.00 0.00 82 1012.4
20260502122508 11 13 0.0 3.2 0.00 0.00 0.00 81 1012.4
20260502122004 11 13 0.0 3.2 0.00 0.00 0.00 81 1012.5
20260502121514 11 307 0.0 3.2 0.00 0.00 0.00 81 1012.5
20260502121004 11 315 0.0 1.6 0.00 0.00 0.00 82 1012.7
20260502120508 11 288 0.0 0.0 0.00 0.00 0.00 82 1012.8
20260502115512 11 254 0.0 0.0 0.00 0.00 0.00 82 1012.7
20260502115008 11 254 0.0 0.0 0.00 0.00 0.00 82 1012.7
20260502114521 11 283 0.0 0.0 0.00 0.00 0.00 82 1012.5
20260502114008 11 283 0.0 0.0 0.00 0.00 0.00 82 1012.4
20260502113511 11 283 0.0 0.0 0.00 0.00 0.00 82 1012.3
20260502113024 10 283 0.0 1.6 0.00 0.00 0.00 83 1012.3
20260502112510 10 283 0.0 1.6 0.00 0.00 0.00 83 1012.4
20260502112009 10 292 0.0 4.8 0.00 0.00 0.00 83 1012.3
20260502111510 10 244 0.0 4.8 0.00 0.00 0.00 83 1012.4
20260502111004 10 257 3.2 4.8 0.00 0.00 0.00 84 1012.4
20260502110504 10 251 0.0 1.6 0.00 0.00 0.00 84 1012.2
20260502110019 10 243 0.0 1.6 0.00 0.00 0.00 84 1012.1
20260502105507 10 240 0.0 0.0 0.00 0.00 0.00 84 1012.0
20260502105006 10 240 0.0 3.2 0.00 0.00 0.00 84 1012.0
20260502104537 10 212 0.0 3.2 0.00 0.00 0.00 83 1012.0
20260502104009 10 360 0.0 0.0 0.00 0.00 0.00 84 1012.1
20260502103507 10 21 0.0 3.2 0.00 0.00 0.00 84 1011.9
20260502103027 10 309 0.0 3.2 0.00 0.00 0.00 84 1011.8
20260502102512 10 304 0.0 6.4 0.00 0.00 0.00 84 1011.7
20260502102009 10 268 0.0 8.0 0.00 0.00 0.00 84 1011.8
20260502101526 10 252 3.2 8.0 0.00 0.00 0.00 84 1011.8
20260502101008 10 254 4.8 6.4 0.00 0.00 0.00 84 1011.7
20260502100503 10 251 3.2 6.4 0.00 0.00 0.00 84 1011.6
20260502091511 10 239 1.6 4.8 0.00 0.00 0.00 82 1011.3
20260502091005 10 247 3.2 4.8 0.00 0.00 0.00 82 1011.5
20260502090504 10 236 3.2 6.4 0.00 0.00 0.00 82 1011.6
20260502071007 10 252 1.6 3.2 0.00 0.00 0.00 81 1011.9
20260502070512 10 256 1.6 3.2 0.00 0.00 0.00 81 1011.9
20260502070026 10 256 1.6 3.2 0.00 0.00 0.00 81 1012.0
20260502065509 10 243 1.6 3.2 0.00 0.00 0.00 81 1012.2
20260502065012 10 234 1.6 6.4 0.00 0.00 0.00 80 1012.1
20260502064513 10 247 1.6 6.4 0.00 0.00 0.00 80 1012.2
20260502064004 10 238 3.2 6.4 0.00 0.00 0.00 80 1012.3